User: anonymous   Login
Location: Unspecified
(0.0000°N, 0.0000°E)
Time: 03:10:02
(UTC+00:00)
Language:

Aussat K2 - Orbit

View from above orbital plane
View from above orbital plane
View from above satellite
View from above satellite

Ground track
Ground track

The orbit data is extracted from the following two-line orbital elements,

1 16275U 85109C   15061.33870604 -.00000223  00000-0  00000+0 0  9995
2 16275 014.8392 017.6492 0004200 202.8696 341.5785 00.99937817 96841
Epoch (UTC): 02 March 2015 08:07:44
Eccentricity: 0.0004200
inclination: 14.8392°
perigee height: 35862 km
apogee height: 35898 km
right ascension of ascending node: 17.6492°
argument of perigee: 202.8696°
revolutions per day: 0.99937817
mean anomaly at epoch: 341.5785°
orbit number at epoch: 9684

The dashed part of the orbit path shows where the satellite is in the earth's shadow,  

DLR